This is the latest recevied weather packets stored in our database for station/object N8BAP. If no packets are shown the sender has not sent any weather packets the latest 10 day(s).
| Time | Temp. | Humidity | Pressure | Rain* | Wind** | Luminosity | Snow |
|---|---|---|---|---|---|---|---|
| 1777634537 | 7.78° C | 68% | 1017.6 hPa | 0 mm | - | 16 W/m² | - |
| 1777634233 | 7.78° C | 68% | 1017.7 hPa | 0 mm | - | 11 W/m² | - |
| 1777633930 | 7.78° C | 69% | 1017.6 hPa | 0 mm | - | 8 W/m² | - |
| 1777633627 | 7.22° C | 69% | 1017.3 hPa | 0 mm | - | 11 W/m² | - |
| 1777633326 | 7.22° C | 69% | 1017.2 hPa | 0 mm | - | 12 W/m² | - |
| 1777633023 | 7.22° C | 68% | 1017.3 hPa | 0 mm | - | 11 W/m² | - |
| 1777632719 | 7.22° C | 69% | 1017.3 hPa | 0 mm | - | 8 W/m² | - |
| 1777632415 | 7.22° C | 70% | 1017.3 hPa | 0 mm | - | 4 W/m² | - |
| 1777632112 | 7.22° C | 70% | 1017.3 hPa | 0 mm | - | 2 W/m² | - |
| 1777631810 | 7.22° C | 69% | 1017.3 hPa | 0 mm | - | 0 W/m² | - |
| 1777631508 | 7.22° C | 70% | 1017.4 hPa | 0 mm | - | 0 W/m² | - |
| 1777631204 | 7.22° C | 70% | 1017.3 hPa | 0 mm | - | 0 W/m² | - |
| 1777630902 | 7.22° C | 71% | 1017.6 hPa | 0 mm | - | 0 W/m² | - |
| 1777630597 | 7.22° C | 70% | 1017.6 hPa | 0 mm | - | 0 W/m² | - |
| 1777630294 | 7.22° C | 70% | 1017.8 hPa | 0 mm | - | 0 W/m² | - |
| 1777629992 | 7.22° C | 70% | 1017.9 hPa | 0 mm | - | 0 W/m² | - |
| 1777629690 | 7.22° C | 69% | 1017.7 hPa | 0 mm | - | 0 W/m² | - |
| 1777629386 | 7.22° C | 69% | 1018 hPa | 0 mm | - | 0 W/m² | - |
| 1777629081 | 7.22° C | 69% | 1017.9 hPa | 0 mm | - | 0 W/m² | - |
| 1777628779 | 7.22° C | 69% | 1017.9 hPa | 0 mm | - | 0 W/m² | - |
| 1777628475 | 7.22° C | 69% | 1017.9 hPa | 0 mm | - | 0 W/m² | - |
| 1777628171 | 7.22° C | 68% | 1018 hPa | 0 mm | - | 0 W/m² | - |
| 1777627867 | 7.22° C | 68% | 1018.1 hPa | 0 mm | - | 0 W/m² | - |
| 1777627566 | 7.22° C | 69% | 1018 hPa | 0 mm | - | 0 W/m² | - |
| 1777627260 | 6.67° C | 69% | 1018.2 hPa | 0 mm | - | 0 W/m² | - |
* Rain latest hour (hover to see other rain measurements)
** Current wind speed in m/s (hover to see current wind gust speed)